Location: Mahannah Oil Field
(37.4664°N, 96.6003°W)
Time: 06:35:22
(UTC+00:00)

Tiros 1 despin weight - Pass Details

Date: 24 January 2021
Orbit: 593 x 642 km, 48.2° (Epoch: 04 March)

Event Time Altitude Azimuth Distance (km) Brightness Sun altitude
Rises 02:29:55 0° 305° (NW) 2,842 ? -33.4°
Reaches altitude 10° 02:32:14 10° 307° (NW) 1,933 ? -33.8°
Enters shadow 02:33:08 16° 309° (NW) 1,589 ? -34.0°
